Year,Month,Day,Hour,Minute,Value (Times are PST for temperature in C)
2015,05,21,00,00,13.30
2015,05,21,00,01,13.20
2015,05,21,00,02,13.20
2015,05,21,00,03,13.20
2015,05,21,00,04,13.20
2015,05,21,00,05,13.20
2015,05,21,00,06,13.10
2015,05,21,00,07,13.10
2015,05,21,00,08,13.10
2015,05,21,00,09,13.10
2015,05,21,00,10,13.10
2015,05,21,00,11,13.00
2015,05,21,00,12,13.00
2015,05,21,00,13,13.00
2015,05,21,00,14,13.00
2015,05,21,00,15,13.00
2015,05,21,00,16,13.00
2015,05,21,00,17,12.90
2015,05,21,00,18,12.90
2015,05,21,00,19,12.90
2015,05,21,00,20,12.90
2015,05,21,00,21,12.90
2015,05,21,00,22,12.90
2015,05,21,00,23,12.90
2015,05,21,00,24,12.90
2015,05,21,00,25,12.90
2015,05,21,00,26,12.90
2015,05,21,00,27,12.90
2015,05,21,00,28,12.90
2015,05,21,00,29,13.00
2015,05,21,00,30,13.00
2015,05,21,00,31,13.00
2015,05,21,00,32,13.10
2015,05,21,00,33,13.10
2015,05,21,00,34,13.10
2015,05,21,00,35,13.10
2015,05,21,00,36,13.10
2015,05,21,00,37,13.10
2015,05,21,00,38,13.10
2015,05,21,00,39,13.10
2015,05,21,00,40,13.10
2015,05,21,00,41,13.10
2015,05,21,00,42,13.10
2015,05,21,00,43,13.10
2015,05,21,00,44,13.10
2015,05,21,00,45,13.10
2015,05,21,00,46,13.10
2015,05,21,00,47,13.10
2015,05,21,00,48,13.10
2015,05,21,00,49,13.00
2015,05,21,00,50,13.00
2015,05,21,00,51,13.00
2015,05,21,00,52,13.00
2015,05,21,00,53,13.00
2015,05,21,00,54,13.00
2015,05,21,00,55,13.00
2015,05,21,00,56,13.00
2015,05,21,00,57,12.90
2015,05,21,00,58,12.90
2015,05,21,00,59,12.90
2015,05,21,01,00,12.90
2015,05,21,01,01,12.90
2015,05,21,01,02,12.90
2015,05,21,01,03,12.90
2015,05,21,01,04,12.90
2015,05,21,01,05,12.90
2015,05,21,01,06,12.90
2015,05,21,01,07,12.90
2015,05,21,01,08,12.80
2015,05,21,01,09,12.80
2015,05,21,01,10,12.80
2015,05,21,01,11,12.80
2015,05,21,01,12,12.80
2015,05,21,01,13,12.80
2015,05,21,01,14,12.80
2015,05,21,01,15,12.80
2015,05,21,01,16,12.70
2015,05,21,01,17,12.70
2015,05,21,01,18,12.70
2015,05,21,01,19,12.70
2015,05,21,01,20,12.60
2015,05,21,01,21,12.60
2015,05,21,01,22,12.50
2015,05,21,01,23,12.50
2015,05,21,01,24,12.40
2015,05,21,01,25,12.40
2015,05,21,01,26,12.30
2015,05,21,01,27,12.30
2015,05,21,01,28,12.30
2015,05,21,01,29,12.20
2015,05,21,01,30,12.20
2015,05,21,01,31,12.10
2015,05,21,01,32,12.00
2015,05,21,01,33,12.00
2015,05,21,01,34,12.00
2015,05,21,01,35,11.90
2015,05,21,01,36,11.90
2015,05,21,01,37,11.90
2015,05,21,01,38,11.90
2015,05,21,01,39,11.80
2015,05,21,01,40,11.80
2015,05,21,01,41,11.80
2015,05,21,01,42,11.80
2015,05,21,01,43,11.80
2015,05,21,01,44,11.80
2015,05,21,01,45,11.80
2015,05,21,01,46,11.80
2015,05,21,01,47,11.80
2015,05,21,01,48,11.70
2015,05,21,01,49,11.70
2015,05,21,01,50,11.70
2015,05,21,01,51,11.70
2015,05,21,01,52,11.70
2015,05,21,01,53,11.70
2015,05,21,01,54,11.60
2015,05,21,01,55,11.60
2015,05,21,01,56,11.60
2015,05,21,01,57,11.50
2015,05,21,01,58,11.40
2015,05,21,01,59,11.40
2015,05,21,02,00,11.40
2015,05,21,02,01,11.30
2015,05,21,02,02,11.30
2015,05,21,02,03,11.20
2015,05,21,02,04,11.20
2015,05,21,02,05,11.20
2015,05,21,02,06,11.10
2015,05,21,02,07,11.10
2015,05,21,02,08,11.10
2015,05,21,02,09,11.10
2015,05,21,02,10,11.10
2015,05,21,02,11,11.10
2015,05,21,02,12,11.10
2015,05,21,02,13,11.00
2015,05,21,02,14,10.90
2015,05,21,02,15,10.90
2015,05,21,02,16,10.90
2015,05,21,02,17,10.90
2015,05,21,02,18,10.80
2015,05,21,02,19,10.80
2015,05,21,02,20,10.70
2015,05,21,02,21,10.70
2015,05,21,02,22,10.70
2015,05,21,02,23,10.70
2015,05,21,02,24,10.60
2015,05,21,02,25,10.60
2015,05,21,02,26,10.60
2015,05,21,02,27,10.60
2015,05,21,02,28,10.60
2015,05,21,02,29,10.60
2015,05,21,02,30,10.60
2015,05,21,02,31,10.60
2015,05,21,02,32,10.60
2015,05,21,02,33,10.60
2015,05,21,02,34,10.50
2015,05,21,02,35,10.40
2015,05,21,02,36,10.40
2015,05,21,02,37,10.40
2015,05,21,02,38,10.40
2015,05,21,02,39,10.40
2015,05,21,02,40,10.40
2015,05,21,02,41,10.40
2015,05,21,02,42,10.40
2015,05,21,02,43,10.40
2015,05,21,02,44,10.40
2015,05,21,02,45,10.40
2015,05,21,02,46,10.40
2015,05,21,02,47,10.40
2015,05,21,02,48,10.40
2015,05,21,02,49,10.40
2015,05,21,02,50,10.40
2015,05,21,02,51,10.40
2015,05,21,02,52,10.40
2015,05,21,02,53,10.40
2015,05,21,02,54,10.40
2015,05,21,02,55,10.40
2015,05,21,02,56,10.40
2015,05,21,02,57,10.40
2015,05,21,02,58,10.40
2015,05,21,02,59,10.40
2015,05,21,03,00,10.40
2015,05,21,03,01,10.40
2015,05,21,03,02,10.40
2015,05,21,03,03,10.40
2015,05,21,03,04,10.40
2015,05,21,03,05,10.40
2015,05,21,03,06,10.40
2015,05,21,03,07,10.40
2015,05,21,03,08,10.40
2015,05,21,03,09,10.40
2015,05,21,03,10,10.40
2015,05,21,03,11,10.40
2015,05,21,03,12,10.40
2015,05,21,03,13,10.40
2015,05,21,03,14,10.40
2015,05,21,03,15,10.40
2015,05,21,03,16,10.40
2015,05,21,03,17,10.40
2015,05,21,03,18,10.40
2015,05,21,03,19,10.40
2015,05,21,03,20,10.40
2015,05,21,03,21,10.40
2015,05,21,03,22,10.40
2015,05,21,03,23,10.40
2015,05,21,03,24,10.40
2015,05,21,03,25,10.40
2015,05,21,03,26,10.40
2015,05,21,03,27,10.30
2015,05,21,03,28,10.30
2015,05,21,03,29,10.30
2015,05,21,03,30,10.30
2015,05,21,03,31,10.30
2015,05,21,03,32,10.30
2015,05,21,03,33,10.30
2015,05,21,03,34,10.30
2015,05,21,03,35,10.30
2015,05,21,03,36,10.30
2015,05,21,03,37,10.30
2015,05,21,03,38,10.30
2015,05,21,03,39,10.30
2015,05,21,03,40,10.30
2015,05,21,03,41,10.30
2015,05,21,03,42,10.20
2015,05,21,03,43,10.20
2015,05,21,03,44,10.20
2015,05,21,03,45,10.20
2015,05,21,03,46,10.20
2015,05,21,03,47,10.20
2015,05,21,03,48,10.20
2015,05,21,03,49,10.20
2015,05,21,03,50,10.20
2015,05,21,03,51,10.20
2015,05,21,03,52,10.20
2015,05,21,03,53,10.20
2015,05,21,03,54,10.20
2015,05,21,03,55,10.20
2015,05,21,03,56,10.20
2015,05,21,03,57,10.20
2015,05,21,03,58,10.10
2015,05,21,03,59,10.10
2015,05,21,04,00,10.10
2015,05,21,04,01,10.10
2015,05,21,04,02,10.10
2015,05,21,04,03,10.10
2015,05,21,04,04,10.10
2015,05,21,04,05,10.10
2015,05,21,04,06,10.10
2015,05,21,04,07,10.10
2015,05,21,04,08,10.10
2015,05,21,04,09,10.10
2015,05,21,04,10,10.10
2015,05,21,04,11,10.10
2015,05,21,04,12,10.10
2015,05,21,04,13,10.10
2015,05,21,04,14,10.10
2015,05,21,04,15,10.10
2015,05,21,04,16,10.10
2015,05,21,04,17,10.10
2015,05,21,04,18,10.10
2015,05,21,04,19,10.10
2015,05,21,04,20,10.10
2015,05,21,04,21,10.10
2015,05,21,04,22,10.10
2015,05,21,04,23,10.00
2015,05,21,04,24,9.90
2015,05,21,04,25,9.90
2015,05,21,04,26,9.90
2015,05,21,04,27,9.90
2015,05,21,04,28,9.90
2015,05,21,04,29,9.90
2015,05,21,04,30,9.90
2015,05,21,04,31,9.90
2015,05,21,04,32,9.90
2015,05,21,04,33,9.90
2015,05,21,04,34,9.90
2015,05,21,04,35,9.90
2015,05,21,04,36,9.90
2015,05,21,04,37,9.90
2015,05,21,04,38,9.90
2015,05,21,04,39,9.90
2015,05,21,04,40,9.90
2015,05,21,04,41,9.90
2015,05,21,04,42,9.90
2015,05,21,04,43,9.90
2015,05,21,04,44,9.90
2015,05,21,04,45,9.90
2015,05,21,04,46,9.90
2015,05,21,04,47,9.90
2015,05,21,04,48,9.90
2015,05,21,04,49,9.90
2015,05,21,04,50,9.90
2015,05,21,04,51,9.90
2015,05,21,04,52,9.90
2015,05,21,04,53,9.90
2015,05,21,04,54,9.90
2015,05,21,04,55,9.90
2015,05,21,04,56,9.90
2015,05,21,04,57,9.90
2015,05,21,04,58,9.90
2015,05,21,04,59,9.90
2015,05,21,05,00,9.90
2015,05,21,05,01,9.90
2015,05,21,05,02,9.90
2015,05,21,05,03,9.90
2015,05,21,05,04,9.90
2015,05,21,05,05,9.90
2015,05,21,05,06,9.90
2015,05,21,05,07,9.90
2015,05,21,05,08,9.80
2015,05,21,05,09,9.80
2015,05,21,05,10,9.80
2015,05,21,05,11,9.80
2015,05,21,05,12,9.80
2015,05,21,05,13,9.80
2015,05,21,05,14,9.80
2015,05,21,05,15,9.80
2015,05,21,05,16,9.70
2015,05,21,05,17,9.70
2015,05,21,05,18,9.70
2015,05,21,05,19,9.70
2015,05,21,05,20,9.70
2015,05,21,05,21,9.70
2015,05,21,05,22,9.70
2015,05,21,05,23,9.70
2015,05,21,05,24,9.70
2015,05,21,05,25,9.70
2015,05,21,05,26,9.70
2015,05,21,05,27,9.70
2015,05,21,05,28,9.70
2015,05,21,05,29,9.70
2015,05,21,05,30,9.70
2015,05,21,05,31,9.70
2015,05,21,05,32,9.70
2015,05,21,05,33,9.70
2015,05,21,05,34,9.70
2015,05,21,05,35,9.70
2015,05,21,05,36,9.70
2015,05,21,05,37,9.70
2015,05,21,05,38,9.70
2015,05,21,05,39,9.70
2015,05,21,05,40,9.70
2015,05,21,05,41,9.70
2015,05,21,05,42,9.70
2015,05,21,05,43,9.70
2015,05,21,05,44,9.70
2015,05,21,05,45,9.70
2015,05,21,05,46,9.70
2015,05,21,05,47,9.70
2015,05,21,05,48,9.70
2015,05,21,05,49,9.70
2015,05,21,05,50,9.70
2015,05,21,05,51,9.70
2015,05,21,05,52,9.70
2015,05,21,05,53,9.70
2015,05,21,05,54,9.70
2015,05,21,05,55,9.70
2015,05,21,05,56,9.70
2015,05,21,05,57,9.70
2015,05,21,05,58,9.70
2015,05,21,05,59,9.70
2015,05,21,06,00,9.70
2015,05,21,06,01,9.70
2015,05,21,06,02,9.80
2015,05,21,06,03,9.80
2015,05,21,06,04,9.80
2015,05,21,06,05,9.90
2015,05,21,06,06,9.90
2015,05,21,06,07,9.90
2015,05,21,06,08,9.90
2015,05,21,06,09,9.90
2015,05,21,06,10,9.90
2015,05,21,06,11,9.90
2015,05,21,06,12,9.90
2015,05,21,06,13,9.90
2015,05,21,06,14,9.90
2015,05,21,06,15,10.10
2015,05,21,06,16,10.10
2015,05,21,06,17,10.10
2015,05,21,06,18,10.10
2015,05,21,06,19,10.10
2015,05,21,06,20,10.10
2015,05,21,06,21,10.10
2015,05,21,06,22,10.10
2015,05,21,06,23,10.20
2015,05,21,06,24,10.20
2015,05,21,06,25,10.20
2015,05,21,06,26,10.30
2015,05,21,06,27,10.30
2015,05,21,06,28,10.30
2015,05,21,06,29,10.30
2015,05,21,06,30,10.40
2015,05,21,06,31,10.40
2015,05,21,06,32,10.40
2015,05,21,06,33,10.40
2015,05,21,06,34,10.40
2015,05,21,06,35,10.50
2015,05,21,06,36,10.60
2015,05,21,06,37,10.60
2015,05,21,06,38,10.60
2015,05,21,06,39,10.60
2015,05,21,06,40,10.60
2015,05,21,06,41,10.70
2015,05,21,06,42,10.70
2015,05,21,06,43,10.80
2015,05,21,06,44,10.80
2015,05,21,06,45,10.80
2015,05,21,06,46,10.90
2015,05,21,06,47,10.90
2015,05,21,06,48,10.90
2015,05,21,06,49,10.90
2015,05,21,06,50,10.90
2015,05,21,06,51,11.00
2015,05,21,06,52,11.10
2015,05,21,06,53,11.10
2015,05,21,06,54,11.10
2015,05,21,06,55,11.10
2015,05,21,06,56,11.20
2015,05,21,06,57,11.20
2015,05,21,06,58,11.20
2015,05,21,06,59,11.30
2015,05,21,07,00,11.30
2015,05,21,07,01,11.40
2015,05,21,07,02,11.40
2015,05,21,07,03,11.40
2015,05,21,07,04,11.40
2015,05,21,07,05,11.40
2015,05,21,07,06,11.40
2015,05,21,07,07,11.40
2015,05,21,07,08,11.40
2015,05,21,07,09,11.30
2015,05,21,07,10,11.30
2015,05,21,07,11,11.30
2015,05,21,07,12,11.20
2015,05,21,07,13,11.10
2015,05,21,07,14,11.10
2015,05,21,07,15,11.10
2015,05,21,07,16,11.00
2015,05,21,07,17,10.90
2015,05,21,07,18,10.90
2015,05,21,07,19,10.80
2015,05,21,07,20,10.80
2015,05,21,07,21,10.80
2015,05,21,07,22,10.80
2015,05,21,07,23,10.80
2015,05,21,07,24,10.80
2015,05,21,07,25,10.90
2015,05,21,07,26,10.90
2015,05,21,07,27,11.00
2015,05,21,07,28,11.10
2015,05,21,07,29,11.10
2015,05,21,07,30,11.20
2015,05,21,07,31,11.30
2015,05,21,07,32,11.40
2015,05,21,07,33,11.40
2015,05,21,07,34,11.40
2015,05,21,07,35,11.40
2015,05,21,07,36,11.50
2015,05,21,07,37,11.60
2015,05,21,07,38,11.60
2015,05,21,07,39,11.60
2015,05,21,07,40,11.60
2015,05,21,07,41,11.60
2015,05,21,07,42,11.60
2015,05,21,07,43,11.70
2015,05,21,07,44,11.70
2015,05,21,07,45,11.70
2015,05,21,07,46,11.70
2015,05,21,07,47,11.70
2015,05,21,07,48,11.70
2015,05,21,07,49,11.80
2015,05,21,07,50,11.80
2015,05,21,07,51,11.80
2015,05,21,07,52,11.80
2015,05,21,07,53,11.80
2015,05,21,07,54,11.90
2015,05,21,07,55,11.90
2015,05,21,07,56,11.90
2015,05,21,07,57,12.00
2015,05,21,07,58,12.00
2015,05,21,07,59,12.10
2015,05,21,08,00,12.20
2015,05,21,08,01,12.20
2015,05,21,08,02,12.30
2015,05,21,08,03,12.30
2015,05,21,08,04,12.40
2015,05,21,08,05,12.50
2015,05,21,08,06,12.50
2015,05,21,08,07,12.60
2015,05,21,08,08,12.70
2015,05,21,08,09,12.80
2015,05,21,08,10,12.80
2015,05,21,08,11,12.80
2015,05,21,08,12,12.90
2015,05,21,08,13,13.00
2015,05,21,08,14,13.00
2015,05,21,08,15,13.10
2015,05,21,08,16,13.10
2015,05,21,08,17,13.20
2015,05,21,08,18,13.20
2015,05,21,08,19,13.20
2015,05,21,08,20,13.30
2015,05,21,08,21,13.30
2015,05,21,08,22,13.30
2015,05,21,08,23,13.30
2015,05,21,08,24,13.40
2015,05,21,08,25,13.40
2015,05,21,08,26,13.50
2015,05,21,08,27,13.50
2015,05,21,08,28,13.60
2015,05,21,08,29,13.70
2015,05,21,08,30,13.70
2015,05,21,08,31,13.80
2015,05,21,08,32,13.90
2015,05,21,08,33,13.90
2015,05,21,08,34,14.00
2015,05,21,08,35,14.00
2015,05,21,08,36,14.10
2015,05,21,08,37,14.10
2015,05,21,08,38,14.20
2015,05,21,08,39,14.20
2015,05,21,08,40,14.20
2015,05,21,08,41,14.10
2015,05,21,08,42,14.10
2015,05,21,08,43,14.00
2015,05,21,08,44,13.90
2015,05,21,08,45,13.90
2015,05,21,08,46,13.80
2015,05,21,08,47,13.70
2015,05,21,08,48,13.70
2015,05,21,08,49,13.70
2015,05,21,08,50,13.60
2015,05,21,08,51,13.50
2015,05,21,08,52,13.50
2015,05,21,08,53,13.40
2015,05,21,08,54,13.40
2015,05,21,08,55,13.30
2015,05,21,08,56,13.30
2015,05,21,08,57,13.30
2015,05,21,08,58,13.40
2015,05,21,08,59,13.50
2015,05,21,09,00,13.60
2015,05,21,09,01,13.70
2015,05,21,09,02,13.70
2015,05,21,09,03,13.90
2015,05,21,09,04,13.90
2015,05,21,09,05,14.00
2015,05,21,09,06,14.10
2015,05,21,09,07,14.20
2015,05,21,09,08,14.20
2015,05,21,09,09,14.30
2015,05,21,09,10,14.30
2015,05,21,09,11,14.40
2015,05,21,09,12,14.40
2015,05,21,09,13,14.40
2015,05,21,09,14,14.40
2015,05,21,09,15,14.40
2015,05,21,09,16,14.40
2015,05,21,09,17,14.40
2015,05,21,09,18,14.40
2015,05,21,09,19,14.40
2015,05,21,09,20,14.40
2015,05,21,09,21,14.40
2015,05,21,09,22,14.40
2015,05,21,09,23,14.40
2015,05,21,09,24,14.40
2015,05,21,09,25,14.40
2015,05,21,09,26,14.30
2015,05,21,09,27,14.40
2015,05,21,09,28,14.40
2015,05,21,09,29,14.40
2015,05,21,09,30,14.40
2015,05,21,09,31,14.40
2015,05,21,09,32,14.50
2015,05,21,09,33,14.50
2015,05,21,09,34,14.50
2015,05,21,09,35,14.50
2015,05,21,09,36,14.50
2015,05,21,09,37,14.50
2015,05,21,09,38,14.50
2015,05,21,09,39,14.40
2015,05,21,09,40,14.30
2015,05,21,09,41,14.20
2015,05,21,09,42,14.20
2015,05,21,09,43,14.10
2015,05,21,09,44,14.10
2015,05,21,09,45,14.20
2015,05,21,09,46,14.20
2015,05,21,09,47,14.20
2015,05,21,09,48,14.20
2015,05,21,09,49,14.20
2015,05,21,09,50,14.30
2015,05,21,09,51,14.30
2015,05,21,09,52,14.30
2015,05,21,09,53,14.40
2015,05,21,09,54,14.40
2015,05,21,09,55,14.40
2015,05,21,09,56,14.50
2015,05,21,09,57,14.60
2015,05,21,09,58,14.60
2015,05,21,09,59,14.70
2015,05,21,10,00,14.80
2015,05,21,10,01,14.90
2015,05,21,10,02,14.90
2015,05,21,10,03,15.00
2015,05,21,10,04,15.10
2015,05,21,10,05,15.20
2015,05,21,10,06,15.30
2015,05,21,10,07,15.40
2015,05,21,10,08,15.50
2015,05,21,10,09,15.70
2015,05,21,10,10,15.80
2015,05,21,10,11,15.90
2015,05,21,10,12,16.00
2015,05,21,10,13,16.10
2015,05,21,10,14,16.10
2015,05,21,10,15,16.10
2015,05,21,10,16,16.20
2015,05,21,10,17,16.30
2015,05,21,10,18,16.30
2015,05,21,10,19,16.40
2015,05,21,10,20,16.40
2015,05,21,10,21,16.40
2015,05,21,10,22,16.40
2015,05,21,10,23,16.40
2015,05,21,10,24,16.40
2015,05,21,10,25,16.60
2015,05,21,10,26,16.60
2015,05,21,10,27,16.40
2015,05,21,10,28,16.40
2015,05,21,10,29,16.40
2015,05,21,10,30,16.40
2015,05,21,10,31,16.30
2015,05,21,10,32,16.30
2015,05,21,10,33,16.20
2015,05,21,10,34,16.20
2015,05,21,10,35,16.30
2015,05,21,10,36,16.30
2015,05,21,10,37,16.40
2015,05,21,10,38,16.40
2015,05,21,10,39,16.40
2015,05,21,10,40,16.50
2015,05,21,10,41,16.60
2015,05,21,10,42,16.60
2015,05,21,10,43,16.60
2015,05,21,10,44,16.60
2015,05,21,10,45,16.60
2015,05,21,10,46,16.60
2015,05,21,10,47,16.60
2015,05,21,10,48,16.70
2015,05,21,10,49,16.70
2015,05,21,10,50,16.70
2015,05,21,10,51,16.80
2015,05,21,10,52,16.80
2015,05,21,10,53,16.90
2015,05,21,10,54,16.90
2015,05,21,10,55,17.00
2015,05,21,10,56,17.10
2015,05,21,10,57,17.20
2015,05,21,10,58,17.20
2015,05,21,10,59,17.20
2015,05,21,11,00,17.20
2015,05,21,11,01,17.20
2015,05,21,11,02,17.30
2015,05,21,11,03,17.30
2015,05,21,11,04,17.30
2015,05,21,11,05,17.40
2015,05,21,11,06,17.50
2015,05,21,11,07,17.60
2015,05,21,11,08,17.60
2015,05,21,11,09,17.70
2015,05,21,11,10,17.70
2015,05,21,11,11,17.70
2015,05,21,11,12,17.70
2015,05,21,11,13,17.70
2015,05,21,11,14,17.80
2015,05,21,11,15,17.80
2015,05,21,11,16,17.80
2015,05,21,11,17,17.80
2015,05,21,11,18,17.80
2015,05,21,11,19,17.80
2015,05,21,11,20,17.90
2015,05,21,11,21,17.90
2015,05,21,11,22,17.90
2015,05,21,11,23,17.90
2015,05,21,11,24,17.90
2015,05,21,11,25,17.90
2015,05,21,11,26,18.00
2015,05,21,11,27,18.10
2015,05,21,11,28,18.20
2015,05,21,11,29,18.20
2015,05,21,11,30,18.40
2015,05,21,11,31,18.50
2015,05,21,11,32,18.50
2015,05,21,11,33,18.60
2015,05,21,11,34,18.60
2015,05,21,11,35,18.60
2015,05,21,11,36,18.70
2015,05,21,11,37,18.70
2015,05,21,11,38,18.70
2015,05,21,11,39,18.60
2015,05,21,11,40,18.50
2015,05,21,11,41,18.30
2015,05,21,11,42,18.20
2015,05,21,11,43,18.10
2015,05,21,11,44,18.10
2015,05,21,11,45,17.90
2015,05,21,11,46,17.90
2015,05,21,11,47,17.90
2015,05,21,11,48,17.80
2015,05,21,11,49,17.90
2015,05,21,11,50,17.90
2015,05,21,11,51,17.90
2015,05,21,11,52,17.90
2015,05,21,11,53,17.90
2015,05,21,11,54,17.90
2015,05,21,11,55,17.90
2015,05,21,11,56,18.00
2015,05,21,11,57,18.10
2015,05,21,11,58,18.10
2015,05,21,11,59,18.10
2015,05,21,12,00,18.10
2015,05,21,12,01,18.20
2015,05,21,12,02,18.20
2015,05,21,12,03,18.20
2015,05,21,12,04,18.20
2015,05,21,12,05,18.20
2015,05,21,12,06,18.20
2015,05,21,12,07,18.30
2015,05,21,12,08,18.30
2015,05,21,12,09,18.40
2015,05,21,12,10,18.40
2015,05,21,12,11,18.50
2015,05,21,12,12,18.50
2015,05,21,12,13,18.50
2015,05,21,12,14,18.60
2015,05,21,12,15,18.60
2015,05,21,12,16,18.70
2015,05,21,12,17,18.80
2015,05,21,12,18,18.90
2015,05,21,12,19,19.00
2015,05,21,12,20,19.10
2015,05,21,12,21,19.10
2015,05,21,12,22,19.10
2015,05,21,12,23,19.20
2015,05,21,12,24,19.20
2015,05,21,12,25,19.20
2015,05,21,12,26,19.20
2015,05,21,12,27,19.10
2015,05,21,12,28,19.10
2015,05,21,12,29,19.10
2015,05,21,12,30,19.10
2015,05,21,12,31,19.10
2015,05,21,12,32,18.90
2015,05,21,12,33,18.90
2015,05,21,12,34,18.90
2015,05,21,12,35,18.90
2015,05,21,12,36,18.90
2015,05,21,12,37,18.90
2015,05,21,12,38,19.00
2015,05,21,12,39,19.10
2015,05,21,12,40,19.10
2015,05,21,12,41,19.10
2015,05,21,12,42,19.10
2015,05,21,12,43,19.10
2015,05,21,12,44,19.10
2015,05,21,12,45,19.10
2015,05,21,12,46,19.10
2015,05,21,12,47,19.10
2015,05,21,12,48,19.10
2015,05,21,12,49,19.10
2015,05,21,12,50,19.10
2015,05,21,12,51,19.10
2015,05,21,12,52,19.10
2015,05,21,12,53,19.10
2015,05,21,12,54,19.10
2015,05,21,12,55,19.10
2015,05,21,12,56,19.10
2015,05,21,12,57,19.10
2015,05,21,12,58,19.20
2015,05,21,12,59,19.20
2015,05,21,13,00,19.30
2015,05,21,13,01,19.50
2015,05,21,13,02,19.60
2015,05,21,13,03,19.80
2015,05,21,13,04,19.90
2015,05,21,13,05,20.00
2015,05,21,13,06,20.10
2015,05,21,13,07,20.20
2015,05,21,13,08,20.30
2015,05,21,13,09,20.40
2015,05,21,13,10,20.40
2015,05,21,13,11,20.40
2015,05,21,13,12,20.40
2015,05,21,13,13,20.30
2015,05,21,13,14,20.30
2015,05,21,13,15,20.20
2015,05,21,13,16,20.20
2015,05,21,13,17,20.20
2015,05,21,13,18,20.20
2015,05,21,13,19,20.10
2015,05,21,13,20,20.10
2015,05,21,13,21,20.20
2015,05,21,13,22,20.00
2015,05,21,13,23,20.00
2015,05,21,13,24,20.20
2015,05,21,13,25,20.20
2015,05,21,13,26,20.30
2015,05,21,13,27,20.50
2015,05,21,13,28,20.70
2015,05,21,13,29,20.80
2015,05,21,13,30,20.70
2015,05,21,13,31,20.60
2015,05,21,13,32,20.60
2015,05,21,13,33,20.50
2015,05,21,13,34,20.40
2015,05,21,13,35,20.30
2015,05,21,13,36,20.10
2015,05,21,13,37,20.00
2015,05,21,13,38,19.90
2015,05,21,13,39,19.90
2015,05,21,13,40,20.00
2015,05,21,13,41,20.10
2015,05,21,13,42,20.20
2015,05,21,13,43,20.10
2015,05,21,13,44,20.10
2015,05,21,13,45,20.00
2015,05,21,13,46,19.90
2015,05,21,13,47,19.90
2015,05,21,13,48,19.80
2015,05,21,13,49,19.70
2015,05,21,13,50,19.70
2015,05,21,13,51,19.60
2015,05,21,13,52,19.50
2015,05,21,13,53,19.50
2015,05,21,13,54,19.50
2015,05,21,13,55,19.50
2015,05,21,13,56,19.60
2015,05,21,13,57,19.70
2015,05,21,13,58,19.80
2015,05,21,13,59,19.70
2015,05,21,14,00,19.70
2015,05,21,14,01,19.70
2015,05,21,14,02,19.80
2015,05,21,14,03,19.80
2015,05,21,14,04,19.80
2015,05,21,14,05,19.80
2015,05,21,14,06,19.70
2015,05,21,14,07,19.60
2015,05,21,14,08,19.60
2015,05,21,14,09,19.40
2015,05,21,14,10,19.40
2015,05,21,14,11,19.40
2015,05,21,14,12,19.40
2015,05,21,14,13,19.30
2015,05,21,14,14,19.30
2015,05,21,14,15,19.10
2015,05,21,14,16,19.00
2015,05,21,14,17,18.90
2015,05,21,14,18,18.90
2015,05,21,14,19,18.80
2015,05,21,14,20,18.80
2015,05,21,14,21,18.90
2015,05,21,14,22,19.00
2015,05,21,14,23,19.30
2015,05,21,14,24,19.40
2015,05,21,14,25,19.50
2015,05,21,14,26,19.70
2015,05,21,14,27,20.00
2015,05,21,14,28,20.20
2015,05,21,14,29,20.30
2015,05,21,14,30,20.40
2015,05,21,14,31,20.50
2015,05,21,14,32,20.70
2015,05,21,14,33,20.80
2015,05,21,14,34,20.90
2015,05,21,14,35,20.90
2015,05,21,14,36,21.00
2015,05,21,14,37,21.00
2015,05,21,14,38,21.10
2015,05,21,14,39,21.00
2015,05,21,14,40,21.00
2015,05,21,14,41,21.00
2015,05,21,14,42,21.00
2015,05,21,14,43,21.00
2015,05,21,14,44,21.10
2015,05,21,14,45,21.20
2015,05,21,14,46,21.20
2015,05,21,14,47,21.20
2015,05,21,14,48,21.20
2015,05,21,14,49,21.20
2015,05,21,14,50,21.30
2015,05,21,14,51,21.10
2015,05,21,14,52,20.90
2015,05,21,14,53,20.90
2015,05,21,14,54,21.00
2015,05,21,14,55,21.10
2015,05,21,14,56,21.00
2015,05,21,14,57,21.00
2015,05,21,14,58,20.90
2015,05,21,14,59,20.70
2015,05,21,15,00,20.80
2015,05,21,15,01,20.70
2015,05,21,15,02,20.70
2015,05,21,15,03,20.70
2015,05,21,15,04,20.40
2015,05,21,15,05,20.30
2015,05,21,15,06,20.30
2015,05,21,15,07,20.20
2015,05,21,15,08,20.20
2015,05,21,15,09,20.20
2015,05,21,15,10,20.40
2015,05,21,15,11,20.60
2015,05,21,15,12,20.80
2015,05,21,15,13,20.80
2015,05,21,15,14,20.80
2015,05,21,15,15,20.70
2015,05,21,15,16,20.70
2015,05,21,15,17,20.90
2015,05,21,15,18,21.00
2015,05,21,15,19,21.00
2015,05,21,15,20,21.00
2015,05,21,15,21,20.90
2015,05,21,15,22,20.70
2015,05,21,15,23,20.60
2015,05,21,15,24,20.60
2015,05,21,15,25,20.50
2015,05,21,15,26,20.40
2015,05,21,15,27,20.30
2015,05,21,15,28,20.20
2015,05,21,15,29,20.10
2015,05,21,15,30,19.90
2015,05,21,15,31,19.90
2015,05,21,15,32,19.80
2015,05,21,15,33,19.70
2015,05,21,15,34,19.70
2015,05,21,15,35,19.60
2015,05,21,15,36,19.50
2015,05,21,15,37,19.30
2015,05,21,15,38,19.10
2015,05,21,15,39,19.10
2015,05,21,15,40,19.00
2015,05,21,15,41,18.90
2015,05,21,15,42,18.80
2015,05,21,15,43,18.60
2015,05,21,15,44,18.40
2015,05,21,15,45,18.20
2015,05,21,15,46,18.20
2015,05,21,15,47,18.10
2015,05,21,15,48,18.10
2015,05,21,15,49,18.00
2015,05,21,15,50,17.90
2015,05,21,15,51,17.90
2015,05,21,15,52,17.80
2015,05,21,15,53,17.80
2015,05,21,15,54,17.80
2015,05,21,15,55,17.80
2015,05,21,15,56,17.70
2015,05,21,15,57,17.60
2015,05,21,15,58,17.40
2015,05,21,15,59,17.30
2015,05,21,16,00,17.30
2015,05,21,16,01,17.30
2015,05,21,16,02,17.40
2015,05,21,16,03,17.40
2015,05,21,16,04,17.50
2015,05,21,16,05,17.60
2015,05,21,16,06,17.70
2015,05,21,16,07,17.80
2015,05,21,16,08,17.70
2015,05,21,16,09,17.70
2015,05,21,16,10,17.80
2015,05,21,16,11,17.80
2015,05,21,16,12,17.90
2015,05,21,16,13,17.90
2015,05,21,16,14,17.90
2015,05,21,16,15,18.10
2015,05,21,16,16,18.20
2015,05,21,16,17,18.20
2015,05,21,16,18,18.20
2015,05,21,16,19,18.20
2015,05,21,16,20,18.20
2015,05,21,16,21,18.10
2015,05,21,16,22,17.90
2015,05,21,16,23,17.70
2015,05,21,16,24,17.50
2015,05,21,16,25,17.30
2015,05,21,16,26,17.10
2015,05,21,16,27,16.90
2015,05,21,16,28,16.70
2015,05,21,16,29,16.50
2015,05,21,16,30,16.40
2015,05,21,16,31,16.30
2015,05,21,16,32,16.20
2015,05,21,16,33,16.20
2015,05,21,16,34,16.10
2015,05,21,16,35,16.10
2015,05,21,16,36,16.10
2015,05,21,16,37,16.10
2015,05,21,16,38,16.10
2015,05,21,16,39,16.10
2015,05,21,16,40,16.10
2015,05,21,16,41,16.10
2015,05,21,16,42,16.10
2015,05,21,16,43,16.10
2015,05,21,16,44,16.10
2015,05,21,16,45,16.20
2015,05,21,16,46,16.30
2015,05,21,16,47,16.30
2015,05,21,16,48,16.40
2015,05,21,16,49,16.40
2015,05,21,16,50,16.50
2015,05,21,16,51,16.60
2015,05,21,16,52,16.60
2015,05,21,16,53,16.70
2015,05,21,16,54,16.70
2015,05,21,16,55,16.70
2015,05,21,16,56,16.70
2015,05,21,16,57,16.70
2015,05,21,16,58,16.70
2015,05,21,16,59,16.70
2015,05,21,17,00,16.50
2015,05,21,17,01,16.40
2015,05,21,17,02,16.30
2015,05,21,17,03,16.20
2015,05,21,17,04,16.10
2015,05,21,17,05,16.10
2015,05,21,17,06,16.10
2015,05,21,17,07,16.10
2015,05,21,17,08,16.10
2015,05,21,17,09,16.10
2015,05,21,17,10,16.10
2015,05,21,17,11,16.10
2015,05,21,17,12,16.10
2015,05,21,17,13,16.10
2015,05,21,17,14,16.10
2015,05,21,17,15,16.20
2015,05,21,17,16,16.20
2015,05,21,17,17,16.20
2015,05,21,17,18,16.20
2015,05,21,17,19,16.20
2015,05,21,17,20,16.20
2015,05,21,17,21,16.20
2015,05,21,17,22,16.20
2015,05,21,17,23,16.30
2015,05,21,17,24,16.30